sat.trackr.live / text

‹ back to catalog

STARLINK-36655

NORAD 67834 · 2026-033P

PAYLOAD ACTIVE UNKNOWN

§ Identity

Operator
Country
US
Launch date
2026-02-16
Launch site
AFETR
Launch vehicle
Mass (kg)
RCS (m²)

Purposes: comms

External: N2YO · Heavens-Above · Gunter

§ Orbital elements

Epoch: 2026-05-25T03:54:40.993344Z

Period
94.27 min
Inclination
43.0017°
Eccentricity
0.0000498
Mean motion
15.27583753 rev/d
Perigee alt
482.7 km
Apogee alt
483.4 km
Semi-major
6,861.2 km
B*
2.5912e-4
RAAN
194.8247°
Arg perigee
205.5942°
Mean anomaly
154.4885°
Rev number
1,637

§ Raw data

STARLINK-366551 67834U 26033P   26145.16297446  .00006876  00000+0  25912-3 0  99972 67834  43.0017 194.8247 0000498 205.5942 154.4885 15.27583753 16376

JSON: /api/v1/satellites/67834 · /tle

For live sub-satellite position, see the globe view (requires WebGL).

§ Visibility from observer

Set your observer location to see the next 7 days of passes ≥ 10°. The values pass through the URL so the page stays shareable.

No JS? Fill the form by hand. The geolocation button needs JavaScript.